This is the latest recevied weather packets stored in our database for station/object N3FAA. If no packets are shown the sender has not sent any weather packets the latest 10 day(s).
| Time | Temp. | Humidity | Pressure | Rain* | Wind** | Luminosity | Snow |
|---|---|---|---|---|---|---|---|
| 1777594584 | 27.78° C | 25% | 1006.8 hPa | 0 mm | - | 379 W/m² | - |
| 1777594280 | 27.78° C | 22% | 1006.8 hPa | 0 mm | - | 401 W/m² | - |
| 1777593976 | 27.78° C | 22% | 1006.6 hPa | 0 mm | - | 423 W/m² | - |
| 1777593672 | 28.33° C | 22% | 1006.9 hPa | 0 mm | - | 419 W/m² | - |
| 1777593369 | 28.33° C | 23% | 1007.1 hPa | 0 mm | - | 393 W/m² | - |
| 1777593067 | 27.78° C | 22% | 1007.1 hPa | 0 mm | - | 422 W/m² | - |
| 1777592767 | 28.89° C | 22% | 1006.8 hPa | 0 mm | - | 452 W/m² | - |
| 1777592463 | 28.33° C | 19% | 1006.9 hPa | 0 mm | - | 467 W/m² | - |
| 1777592158 | 28.33° C | 16% | 1007.2 hPa | 0 mm | - | 460 W/m² | - |
| 1777591855 | 28.89° C | 16% | 1006.9 hPa | 0 mm | - | 525 W/m² | - |
| 1777591551 | 29.44° C | 16% | 1007 hPa | 0 mm | - | 563 W/m² | - |
| 1777591248 | 28.89° C | 16% | 1007.1 hPa | 0 mm | - | 598 W/m² | - |
| 1777590943 | 28.89° C | 16% | 1006.9 hPa | 0 mm | - | 608 W/m² | - |
| 1777590638 | 28.89° C | 17% | 1007.1 hPa | 0 mm | - | 627 W/m² | - |
| 1777590335 | 28.89° C | 16% | 1007 hPa | 0 mm | - | 645 W/m² | - |
| 1777590033 | 28.89° C | 17% | 1007.2 hPa | 0 mm | - | 636 W/m² | - |
| 1777589729 | 28.89° C | 16% | 1007.3 hPa | 0 mm | - | 638 W/m² | - |
| 1777589427 | 28.33° C | 16% | 1007.2 hPa | 0 mm | - | 645 W/m² | - |
| 1777589123 | 28.33° C | 16% | 1007.1 hPa | 0 mm | - | 581 W/m² | - |
| 1777588819 | 29.44° C | 15% | 1007.5 hPa | 0 mm | - | 549 W/m² | - |
| 1777588515 | 27.78° C | 16% | 1007.5 hPa | 0 mm | - | 592 W/m² | - |
| 1777588210 | 28.33° C | 16% | 1007.6 hPa | 0 mm | - | 638 W/m² | - |
| 1777587906 | 28.33° C | 16% | 1007.7 hPa | 0 mm | - | 620 W/m² | - |
| 1777587602 | 28.33° C | 16% | 1007.8 hPa | 0 mm | - | 612 W/m² | - |
| 1777587297 | 28.33° C | 16% | 1007.9 hPa | 0 mm | - | 651 W/m² | - |
* Rain latest hour (hover to see other rain measurements)
** Current wind speed in m/s (hover to see current wind gust speed)